Waarnemingen

Advertentie
Mijn weer
AWG, Nederland (6208): temperatuur & dauwpunt: 16.02.2017 11:00:00 - 22.02.2017 11:00:00 (CET)AWG, Nederland (6208): windsnelheid & windstoten: 16.02.2017 11:00:00 - 22.02.2017 11:00:00 (CET)AWG, Nederland (6208): windrichting: 16.02.2017 11:00:00 - 22.02.2017 11:00:00 (CET)AWG, Nederland (6208): luchtdruk: 16.02.2017 11:00:00 - 22.02.2017 11:00:00 (CET)AWG, Nederland (6208): zicht: 16.02.2017 11:00:00 - 22.02.2017 11:00:00 (CET)
Datum & Tijd tt [°C] td [°C] ff [km/u] ff [kn] fx [km/u] fx [kn] dd ppp [hPa] vv [km]
22.02.2017 11:00:00 6,9 4,5 44 24 43 23 W 1001,1 9
22.02.2017 10:00:00 6,5 5,0 42 23 43 23 W 1001,0 8
22.02.2017 09:00:00 6,7 5,9 46 25 54 29 W 1000,5 6
22.02.2017 08:00:00 8,1 7,1 54 29 58 31 W 999,7 7
22.02.2017 07:00:00 8,0 6,5 55 30 58 31 WZW 999,2 9
22.02.2017 06:00:00 7,7 6,6 52 28 54 29 WZW 999,4 7
22.02.2017 05:00:00 7,6 6,7 54 29 58 31 WZW 999,8 5
22.02.2017 04:00:00 7,6 6,7 57 31 61 33 WZW 1000,2 5
22.02.2017 03:00:00 7,6 6,7 52 28 54 29 WZW 1001,2 5
22.02.2017 02:00:00 7,6 6,8 52 28 54 29 WZW 1001,9 7
22.02.2017 01:00:00 7,7 7,0 52 28 54 29 ZW 1002,9 6
22.02.2017 00:00:00 7,9 7,5 52 28 54 29 ZW 1003,9 2,9
21.02.2017 23:00:00 8,0 7,3 44 24 54 29 ZZW 1004,8 3,0
21.02.2017 22:00:00 7,5 5,7 46 25 54 29 - 1006,6 9
21.02.2017 21:00:00 6,7 4,3 42 23 43 23 ZZW 1007,9 10
21.02.2017 20:00:00 6,2 4,4 34 18 40 21 - 1009,5 10
21.02.2017 19:00:00 6,6 4,6 26 14 25 14 ZZW 1010,9 10
21.02.2017 18:00:00 5,6 4,6 21 11 22 12 WZW 1011,9 9
21.02.2017 17:00:00 6,1 4,6 18 10 29 16 WZW 1012,3 8
21.02.2017 16:00:00 5,8 4,2 34 18 29 16 W 1012,5 9
21.02.2017 15:00:00 5,4 4,1 35 19 36 19 W 1012,8 8
21.02.2017 14:00:00 5,3 4,0 35 19 32 18 W 1012,9 8
21.02.2017 13:00:00 5,4 4,0 37 20 36 19 W 1012,9 8
21.02.2017 12:00:00 5,2 3,8 37 20 36 19 W 1013,0 8
21.02.2017 11:00:00 5,5 3,9 35 19 36 19 W 1012,6 8
21.02.2017 10:00:00 5,5 3,9 37 20 36 19 WNW 1012,0 8
21.02.2017 09:00:00 6,1 4,2 41 22 43 23 WNW 1011,2 9
21.02.2017 08:00:00 5,3 3,7 31 17 32 18 WNW 1011,2 9
21.02.2017 07:00:00 5,4 3,7 31 17 36 19 W 1010,6 8
21.02.2017 06:00:00 5,5 3,7 37 20 40 21 W 1010,2 9
21.02.2017 05:00:00 5,6 3,7 39 21 43 23 W 1009,7 9
21.02.2017 04:00:00 5,9 4,0 42 23 43 23 W 1009,4 10
21.02.2017 03:00:00 5,9 4,3 44 24 43 23 W 1009,5 9
21.02.2017 02:00:00 5,9 4,2 42 23 40 21 W 1009,9 10
21.02.2017 01:00:00 5,8 4,8 41 22 40 21 W 1010,2 7
21.02.2017 00:00:00 5,9 5,2 37 20 40 21 W 1010,4 6
20.02.2017 23:00:00 6,4 5,5 41 22 40 21 W 1010,3 8
20.02.2017 22:00:00 6,8 5,8 46 25 47 25 WNW 1010,0 9
20.02.2017 21:00:00 6,7 5,7 46 25 47 25 WNW 1009,6 8
20.02.2017 20:00:00 6,8 5,7 42 23 47 25 W 1009,5 7
20.02.2017 19:00:00 7,8 6,4 50 27 47 25 W 1009,3 9
20.02.2017 18:00:00 7,7 7,0 50 27 54 29 W 1009,1 6
20.02.2017 17:00:00 8,3 6,7 50 27 50 27 W 1009,0 9
20.02.2017 16:00:00 7,5 6,3 46 25 50 27 W 1009,0 10
20.02.2017 15:00:00 7,3 6,6 42 23 43 23 WZW 1009,6 6
20.02.2017 14:00:00 6,9 6,9 41 22 40 21 WZW 1009,9 0,3
20.02.2017 13:00:00 7,5 7,3 41 22 43 23 W 1010,7 1,4
20.02.2017 12:00:00 7,4 7,1 39 21 43 23 WZW 1011,1 3,0
20.02.2017 11:00:00 6,7 6,5 41 22 40 21 WZW 1011,5 1,2
20.02.2017 10:00:00 6,2 6,1 41 22 43 23 WZW 1012,0 3,1
20.02.2017 09:00:00 6,1 6,0 44 24 47 25 ZW 1012,5 3,2
20.02.2017 08:00:00 6,4 6,1 44 24 47 25 ZW 1012,6 2,5
20.02.2017 07:00:00 6,9 6,0 44 24 47 25 ZW 1012,9 6
20.02.2017 06:00:00 6,5 5,2 44 24 47 25 ZW 1013,9 9
20.02.2017 05:00:00 6,7 5,2 44 24 47 25 ZW 1014,2 10
20.02.2017 04:00:00 6,1 5,1 37 20 40 21 WZW 1014,6 7
20.02.2017 03:00:00 6,1 5,1 35 19 36 19 ZW 1015,8 7
20.02.2017 02:00:00 5,9 4,9 29 16 32 18 ZW 1016,5 7
20.02.2017 01:00:00 5,9 5,0 31 17 32 18 ZW 1017,3 6
20.02.2017 00:00:00 5,5 4,8 26 14 29 16 ZW 1017,9 7
19.02.2017 23:00:00 5,3 4,8 26 14 29 16 WZW 1018,2 6
19.02.2017 22:00:00 5,4 4,8 21 11 22 12 WZW 1018,1 10
19.02.2017 21:00:00 5,7 4,9 24 13 29 16 W 1018,6 10
19.02.2017 20:00:00 5,7 5,0 29 16 29 16 W 1018,7 8
19.02.2017 19:00:00 4,7 4,3 28 15 25 14 W 1018,4 6
19.02.2017 18:00:00 4,9 4,4 24 13 25 14 W 1018,0 5
19.02.2017 17:00:00 5,0 4,4 22 12 32 18 W 1017,8 7
19.02.2017 16:00:00 5,1 4,4 32 18 36 19 WNW 1017,8 6
19.02.2017 15:00:00 5,1 4,0 25 14 32 18 W 1017,2 6
19.02.2017 14:00:00 5,1 4,2 29 16 32 18 WNW 1017,3 5
19.02.2017 13:00:00 5,3 4,4 25 14 32 18 W 1017,7 4,5
19.02.2017 12:00:00 5,7 4,7 25 14 36 19 W 1018,0 5
19.02.2017 11:00:00 6,0 4,7 32 18 36 19 W 1017,9 6
19.02.2017 10:00:00 5,3 4,6 29 16 36 19 WZW 1017,8 5
19.02.2017 09:00:00 5,0 4,4 29 16 36 19 WZW 1017,7 3,5
19.02.2017 08:00:00 5,0 4,5 34 18 36 19 WZW 1017,5 2,5
19.02.2017 07:00:00 4,9 4,0 37 20 40 21 ZW 1017,4 3,5
19.02.2017 06:00:00 5,5 4,0 41 22 43 23 ZW 1017,8 5
19.02.2017 05:00:00 5,7 3,9 41 22 47 25 ZW 1018,2 5
19.02.2017 04:00:00 5,7 3,9 37 20 40 21 ZW 1018,8 3,9
19.02.2017 03:00:00 5,0 3,8 34 18 43 23 ZZW 1019,1 2,7
19.02.2017 02:00:00 4,6 4,1 37 20 40 21 - 1020,0 2,1
19.02.2017 01:00:00 4,4 4,3 34 18 36 19 ZZW 1020,9 0,3
19.02.2017 00:00:00 4,1 4,0 41 22 43 23 ZW 1021,9 0,6
18.02.2017 23:00:00 4,3 4,3 35 19 36 19 WZW 1022,3 0,3
18.02.2017 22:00:00 4,7 4,6 34 18 36 19 ZZW 1022,1 0,4
18.02.2017 21:00:00 3,9 3,7 28 15 36 19 ZW 1023,1 0,6
18.02.2017 20:00:00 4,6 3,9 28 15 32 18 - 1023,1 1,8
18.02.2017 19:00:00 4,7 3,8 21 11 29 16 ZZW 1023,8 2,4
18.02.2017 18:00:00 5,2 3,9 21 11 25 14 ZZW 1024,0 3,4
18.02.2017 17:00:00 4,9 3,9 24 13 32 18 ZZW 1024,3 3,5
18.02.2017 16:00:00 3,7 3,5 18 10 25 14 ZZW 1024,7 0,3
18.02.2017 15:00:00 3,7 3,4 24 13 25 14 ZW 1025,4 5
18.02.2017 14:00:00 4,4 4,2 22 12 32 18 ZZW 1025,3 0,2
18.02.2017 13:00:00 3,9 3,6 21 11 22 12 ZZW 1026,4 1,7
18.02.2017 12:00:00 3,5 3,4 21 11 25 14 ZZW 1026,8 1,4
18.02.2017 11:00:00 2,9 2,9 18 10 18 10 ZZW 1027,0 0,4
18.02.2017 10:00:00 2,5 2,4 13 7 18 10 - 1027,0 0,3
18.02.2017 09:00:00 2,7 2,7 15 8 18 10 ZW 1026,8 0,9
18.02.2017 08:00:00 2,8 2,7 13 7 14 8 ZW 1026,8 0,9
18.02.2017 07:00:00 2,4 2,3 11 6 14 8 WZW 1026,7 1,6
18.02.2017 06:00:00 2,5 2,3 18 10 18 10 WNW 1026,9 0,6
18.02.2017 05:00:00 3,2 3,0 13 7 18 10 W 1026,9 1,2
18.02.2017 04:00:00 3,9 2,7 13 7 18 10 W 1027,0 10
18.02.2017 03:00:00 4,5 3,6 13 7 18 10 WNW 1027,2 10
18.02.2017 02:00:00 4,4 3,9 16 9 22 12 WNW 1027,0 9
18.02.2017 01:00:00 4,7 4,1 15 8 18 10 WNW 1027,0 3,7
18.02.2017 00:00:00 5,1 4,2 18 10 22 12 NW 1027,0 10
17.02.2017 23:00:00 4,4 4,0 21 11 25 14 WNW 1027,0 4,0
17.02.2017 22:00:00 5,3 4,7 21 11 25 14 NW 1027,0 10
17.02.2017 21:00:00 4,6 4,5 24 13 29 16 NW 1026,7 2,7
17.02.2017 20:00:00 4,5 4,3 26 14 25 14 WNW 1026,3 1,5
17.02.2017 19:00:00 4,8 4,8 22 12 29 16 WNW 1026,1 2,9
17.02.2017 18:00:00 4,2 4,2 28 15 29 16 NW 1025,5 0,5
17.02.2017 17:00:00 5,1 4,1 18 10 29 16 NW 1024,9 10
17.02.2017 16:00:00 4,8 4,2 34 18 32 18 NW 1024,8 10
17.02.2017 15:00:00 4,6 4,5 26 14 32 18 WNW 1024,3 0,3
17.02.2017 14:00:00 5,1 4,9 37 20 40 21 NW 1023,8 8
17.02.2017 13:00:00 4,9 4,6 41 22 40 21 WNW 1023,3 7
17.02.2017 12:00:00 5,0 4,8 41 22 40 21 NW 1022,9 5
17.02.2017 11:00:00 4,8 4,7 41 22 40 21 NW 1022,4 1,2
17.02.2017 10:00:00 5,0 4,8 41 22 43 23 WNW 1021,5 0,4
17.02.2017 09:00:00 4,7 4,4 37 20 36 19 WNW 1020,9 2,8
17.02.2017 08:00:00 4,6 4,0 37 20 36 19 W 1020,7 5
17.02.2017 07:00:00 4,6 4,0 35 19 36 19 W 1020,5 7
17.02.2017 06:00:00 4,7 4,0 41 22 40 21 W 1020,6 7
17.02.2017 05:00:00 4,6 4,0 41 22 40 21 W 1020,5 6
17.02.2017 04:00:00 5,1 3,9 41 22 40 21 W 1020,8 7
17.02.2017 03:00:00 5,4 3,7 39 21 40 21 W 1021,5 10
17.02.2017 02:00:00 5,7 3,9 37 20 36 19 W 1021,8 10
17.02.2017 01:00:00 5,5 3,9 35 19 40 21 WZW 1022,2 10
17.02.2017 00:00:00 5,1 3,7 34 18 36 19 WZW 1022,7 9
16.02.2017 23:00:00 5,2 3,9 35 19 36 19 WZW 1023,3 9
16.02.2017 22:00:00 4,7 4,1 37 20 43 23 ZW 1023,9 3,2
16.02.2017 21:00:00 4,7 4,3 35 19 36 19 ZZW 1024,1 3,8
16.02.2017 20:00:00 3,7 3,7 35 19 36 19 ZW 1024,8 0,9
16.02.2017 19:00:00 3,3 3,1 35 19 36 19 ZW 1025,2 0,7
16.02.2017 18:00:00 5,0 4,2 31 17 32 18 WZW 1025,1 9
16.02.2017 17:00:00 5,0 4,0 31 17 29 16 WZW 1025,1 10
16.02.2017 16:00:00 5,3 4,2 31 17 29 16 WZW 1025,3 9
16.02.2017 15:00:00 5,4 4,5 31 17 32 18 WZW 1025,5 10
16.02.2017 14:00:00 5,5 4,7 35 19 36 19 ZW 1026,4 8
16.02.2017 13:00:00 5,7 5,1 31 17 36 19 ZW 1026,6 6
16.02.2017 12:00:00 5,9 5,5 34 18 36 19 ZW 1027,2 8
16.02.2017 11:00:00 4,9 4,9 31 17 32 18 ZW 1027,4 0,9

tt = temperatuur
td = dauwpunt
ff = windsnelheid
fx = windstoten
dd = windrichting
ppp = luchtdruk
vv = zicht

Weerstations in de omgeving